Location: Unspecified
(17.6330°N, 0.0000°E)
Time: 23:06:52
(UTC+00:00)

A-11 Canister half - Pass Details

Date: 25 June 2019
Orbit: 1514 x 1685 km, 47.2° (Epoch: 19 July)

Event Time Altitude Azimuth Distance (km) Brightness Sun altitude
Rises 14:34:36 0° 329° (NNW) 4,787 12.0 54.1°
Reaches altitude 10° 14:39:37 10° 351° (N) 3,765 11.4 52.9°
Maximum altitude 14:44:52 16° 25° (NNE) 3,294 10.9 51.7°
Drops below altitude 10° 14:50:01 10° 59° (ENE) 3,701 10.8 50.5°
Sets 14:54:50 0° 81° (E) 4,663 11.2 49.4°
